Alma, MI

8:22 PM EST on November 13, 2019 (GMT -0500)
Gratiot Community

Weather History for KAMN - May, 2019

Change the Weather History Date:

Monday, May 27, 2019

  Actual Average Record
Temperature  
Mean Temperature 64 °F -  
Max Temperature 74 °F 72 °F 91 °F (2018)
Min Temperature 55 °F 47 °F 30 °F (1961)
Growing Degree Days 14 (Base 50)    
Moisture  
Dew Point 53 °F    
Average Humidity 72    
Maximum Humidity 92    
Minimum Humidity 40    
Precipitation  
Precipitation 0.00 in - - ()
Sea Level Pressure  
Sea Level Pressure 30.00 in    
Wind  
Wind Speed 6 mph (East)    
Max Wind Speed 18 mph    
Max Gust Speed 23 mph    
Visibility 10 miles    
Events Rain    
Averages and records for this station are not official NWS values.
T = Trace of Precipitation, MM = Missing Value Source: NWS Daily Summary

Daily Weather History Graph

Daily Weather History Graph

Search for Another Location

Airport or City:

Astronomy

May. 27, 2019 Rise Set
Actual Time 6:04 AM EDT 9:07 PM EDT
Civil Twilight 5:30 AM EDT 9:42 PM EDT
Nautical Twilight 4:46 AM EDT 10:26 PM EDT
Astronomical Twilight 3:54 AM EDT 11:18 PM EDT
Moon 3:03 AM EDT (5/27) 2:05 PM EDT (5/27)
Length of Visible Light 16h 12m
Length of Day
15h 03m
Last Quarter, 41% of the Moon is Illuminated
May 27
Last Quarter
Jun 3
New
Jun 10
First Quarter
Jun 17
Full
Jun 25
Last Quarter

Hourly Weather History & Observations

Time (EDT) Temp. Dew Point Humidity Pressure Visibility Wind Dir Wind Speed Gust Speed Precip Events Conditions
12:15 AM 58.1 °F 53.1 °F 83% 30.09 in 10.0 mi Calm Calm - N/A   Mostly Cloudy
12:16 AM 58.1 °F 52.9 °F 83% 30.09 in 10.0 mi Calm Calm - N/A   Mostly Cloudy
12:35 AM 56.8 °F 52.9 °F 87% 30.09 in 10.0 mi Calm Calm - N/A   Mostly Cloudy
12:36 AM 57.0 °F 53.1 °F 87% 30.09 in 10.0 mi Calm Calm - N/A   Mostly Cloudy
12:55 AM 55.4 °F 51.4 °F 87% 30.09 in 10.0 mi North 5.8 mph - N/A   Scattered Clouds
1:15 AM 58.5 °F 53.6 °F 84% 30.08 in 10.0 mi NE 5.8 mph - N/A   Clear
1:35 AM 58.6 °F 53.6 °F 83% 30.07 in 10.0 mi NE 4.6 mph - N/A   Clear
1:36 AM 58.6 °F 53.6 °F 83% 30.07 in 10.0 mi NE 4.6 mph - N/A   Clear
1:55 AM 57.2 °F 53.2 °F 87% 30.09 in 10.0 mi NNE 3.5 mph - N/A   Clear
1:56 AM 57.0 °F 53.2 °F 87% 30.09 in 10.0 mi NNE 3.5 mph - N/A   Clear
2:15 AM 57.6 °F 53.8 °F 87% 30.09 in 10.0 mi East 4.6 mph - N/A   Clear
2:16 AM 57.6 °F 53.6 °F 87% 30.09 in 10.0 mi East 4.6 mph - N/A   Clear
2:35 AM 56.7 °F 53.2 °F 88% 30.09 in 10.0 mi Calm Calm - N/A   Clear
2:55 AM 55.6 °F 52.3 °F 89% 30.08 in 10.0 mi East 4.6 mph - N/A   Clear
2:56 AM 55.6 °F 52.5 °F 89% 30.08 in 10.0 mi East 4.6 mph - N/A   Clear
3:15 AM 56.5 °F 53.8 °F 91% 30.08 in 10.0 mi East 5.8 mph - N/A   Scattered Clouds
3:35 AM 58.6 °F 55.8 °F 90% 30.08 in 10.0 mi East 4.6 mph - N/A   Mostly Cloudy
3:55 AM 59.5 °F 56.5 °F 90% 30.08 in 10.0 mi East 5.8 mph - N/A   Overcast
4:15 AM 59.5 °F 56.5 °F 90% 30.08 in 10.0 mi ESE 5.8 mph - N/A   Scattered Clouds
4:35 AM 59.0 °F 55.6 °F 88% 30.08 in 10.0 mi East 4.6 mph - N/A   Clear
4:36 AM 59.0 °F 55.6 °F 88% 30.08 in 10.0 mi East 5.8 mph - N/A   Clear
4:55 AM 58.6 °F 55.8 °F 90% 30.08 in 10.0 mi East 5.8 mph - N/A   Mostly Cloudy
4:56 AM 58.8 °F 55.8 °F 90% 30.09 in 10.0 mi East 4.6 mph - N/A   Mostly Cloudy
5:15 AM 58.3 °F 55.2 °F 90% 30.09 in 10.0 mi Calm Calm - N/A   Mostly Cloudy
5:16 AM 58.3 °F 55.2 °F 90% 30.09 in 10.0 mi Calm Calm - N/A   Mostly Cloudy
5:35 AM 57.6 °F 54.9 °F 91% 30.09 in 10.0 mi ESE 4.6 mph - N/A   Clear
5:36 AM 57.4 °F 54.7 °F 91% 30.09 in 10.0 mi ESE 4.6 mph - N/A   Clear
5:55 AM 57.7 °F 55.4 °F 92% 30.09 in 10.0 mi ESE 4.6 mph - N/A   Clear
6:15 AM 57.2 °F 54.9 °F 92% 30.09 in 10.0 mi ESE 4.6 mph - N/A   Clear
6:35 AM 57.2 °F 54.9 °F 92% 30.09 in 7.0 mi ESE 4.6 mph - N/A   Clear
6:55 AM 57.9 °F 55.6 °F 92% 30.09 in 10.0 mi ESE 5.8 mph - N/A   Clear
7:15 AM 59.0 °F 56.3 °F 91% 30.10 in 10.0 mi East 3.5 mph - N/A   Clear
7:16 AM 59.0 °F 56.3 °F 91% 30.10 in 10.0 mi Calm Calm - N/A   Clear
7:35 AM 59.9 °F 56.7 °F 89% 30.10 in 10.0 mi ESE 5.8 mph - N/A   Scattered Clouds
7:55 AM 61.3 °F 56.5 °F 84% 30.10 in 10.0 mi ESE 4.6 mph - N/A   Clear
8:15 AM 63.0 °F 55.0 °F 75% 30.11 in 10.0 mi ESE 4.6 mph - N/A   Clear
8:16 AM 63.1 °F 55.0 °F 75% 30.11 in 10.0 mi ESE 4.6 mph - N/A   Clear
8:35 AM 64.2 °F 52.5 °F 66% 30.11 in 10.0 mi ESE 6.9 mph - N/A   Clear
8:36 AM 64.4 °F 52.3 °F 65% 30.11 in 10.0 mi ESE 5.8 mph - N/A   Clear
8:55 AM 64.9 °F 50.2 °F 59% 30.11 in 10.0 mi ESE 5.8 mph - N/A   Clear
8:56 AM 65.1 °F 50.0 °F 58% 30.11 in 10.0 mi ESE 4.6 mph - N/A   Clear
9:15 AM 66.2 °F 50.4 °F 57% 30.11 in 10.0 mi East 4.6 mph - N/A   Clear
9:16 AM 66.2 °F 50.4 °F 57% 30.11 in 10.0 mi ESE 3.5 mph - N/A   Clear
9:35 AM 66.7 °F 49.5 °F 54% 30.11 in 10.0 mi East 8.1 mph - N/A   Clear
9:55 AM 67.3 °F 49.5 °F 53% 30.11 in 10.0 mi ESE 6.9 mph - N/A   Clear
10:15 AM 68.0 °F 49.3 °F 51% 30.10 in 10.0 mi East 8.1 mph - N/A   Clear
10:35 AM 68.5 °F 49.5 °F 50% 30.09 in 10.0 mi ESE 6.9 mph - N/A   Clear
10:55 AM 69.3 °F 49.1 °F 49% 30.08 in 10.0 mi SE 5.8 mph - N/A   Clear
10:56 AM 69.3 °F 49.1 °F 49% 30.08 in 10.0 mi SE 4.6 mph - N/A   Clear
11:15 AM 69.8 °F 48.7 °F 47% 30.07 in 10.0 mi ESE 6.9 mph - N/A   Clear
11:16 AM 69.8 °F 48.4 °F 46% 30.07 in 10.0 mi ESE 6.9 mph - N/A   Clear
11:35 AM 70.3 °F 47.3 °F 44% 30.05 in 10.0 mi SSE 5.8 mph - N/A   Clear
11:36 AM 70.2 °F 47.1 °F 44% 30.05 in 10.0 mi SSE 4.6 mph - N/A   Clear
11:55 AM 70.7 °F 48.2 °F 45% 30.06 in 10.0 mi SE 5.8 mph - N/A   Clear
11:56 AM 70.7 °F 48.4 °F 45% 30.06 in 10.0 mi SE 5.8 mph - N/A   Clear
12:15 PM 71.1 °F 47.5 °F 43% 30.06 in 10.0 mi SE 8.1 mph - N/A   Clear
12:35 PM 71.8 °F 46.6 °F 41% 30.05 in 10.0 mi ESE 9.2 mph - N/A   Clear
12:55 PM 71.6 °F 47.3 °F 42% 30.06 in 10.0 mi SSE 8.1 mph - N/A   Clear
1:15 PM 72.0 °F 48.6 °F 43% 30.05 in 10.0 mi SSE 4.6 mph - N/A   Clear
1:35 PM 72.7 °F 48.4 °F 42% 30.03 in 10.0 mi ESE 6.9 mph - N/A   Clear
1:55 PM 73.0 °F 48.9 °F 42% 30.02 in 10.0 mi SE 10.4 mph - N/A   Clear
1:56 PM 73.0 °F 48.7 °F 42% 30.02 in 10.0 mi ESE 9.2 mph - N/A   Clear
2:15 PM 71.8 °F 49.1 °F 45% 30.01 in 10.0 mi SE 6.9 mph - N/A   Clear
2:35 PM 73.0 °F 50.0 °F 44% 30.01 in 10.0 mi ESE 8.1 mph - N/A   Scattered Clouds
2:36 PM 73.2 °F 49.8 °F 44% 30.01 in 10.0 mi SE 8.1 mph - N/A   Scattered Clouds
2:55 PM 74.3 °F 49.3 °F 41% 29.99 in 10.0 mi ESE 9.2 mph 17.3 mph N/A   Scattered Clouds
2:56 PM 74.3 °F 49.1 °F 41% 29.99 in 10.0 mi ESE 8.1 mph 17.3 mph N/A   Scattered Clouds
3:15 PM 73.6 °F 47.8 °F 40% 29.99 in 10.0 mi East 8.1 mph - N/A   Mostly Cloudy
3:16 PM 73.4 °F 48.0 °F 41% 29.99 in 10.0 mi East 6.9 mph - N/A   Mostly Cloudy
3:35 PM 73.6 °F 48.4 °F 41% 29.99 in 10.0 mi SE 8.1 mph - N/A   Scattered Clouds
3:36 PM 73.8 °F 48.4 °F 41% 29.99 in 10.0 mi SSE 8.1 mph - N/A   Scattered Clouds
3:55 PM 71.4 °F 55.4 °F 57% 29.98 in 10.0 mi NE 12.7 mph 16.1 mph N/A   Mostly Cloudy
4:15 PM 69.3 °F 55.0 °F 60% 29.96 in 10.0 mi ENE 13.8 mph 17.3 mph N/A   Scattered Clouds
4:35 PM 68.4 °F 55.2 °F 63% 29.96 in 10.0 mi ENE 15.0 mph - N/A   Mostly Cloudy
4:55 PM 67.5 °F 54.9 °F 64% 29.95 in 10.0 mi ENE 16.1 mph - N/A   Scattered Clouds
5:15 PM 66.4 °F 54.1 °F 65% 29.95 in 10.0 mi ENE 18.4 mph 23.0 mph N/A   Scattered Clouds
5:16 PM 66.4 °F 54.0 °F 64% 29.95 in 10.0 mi ENE 17.3 mph 23.0 mph N/A   Scattered Clouds
5:35 PM 66.0 °F 54.0 °F 65% 29.94 in 10.0 mi NE 15.0 mph - N/A   Scattered Clouds
5:36 PM 66.0 °F 53.6 °F 64% 29.94 in 10.0 mi NE 16.1 mph - N/A   Scattered Clouds
5:55 PM 63.5 °F 51.4 °F 65% 29.93 in 10.0 mi ENE 16.1 mph 21.9 mph N/A   Mostly Cloudy
5:56 PM 63.3 °F 51.4 °F 65% 29.94 in 10.0 mi ENE 17.3 mph 21.9 mph N/A   Mostly Cloudy
6:15 PM 61.7 °F 52.0 °F 70% 29.92 in 10.0 mi ENE 11.5 mph 21.9 mph N/A Rain Light Rain
6:16 PM 61.7 °F 52.2 °F 71% 29.92 in 10.0 mi ENE 12.7 mph - N/A Rain Light Rain
6:35 PM 61.2 °F 52.2 °F 72% 29.90 in 10.0 mi ENE 13.8 mph 18.4 mph N/A   Overcast
6:36 PM 61.2 °F 52.2 °F 72% 29.90 in 10.0 mi ENE 15.0 mph 18.4 mph N/A   Overcast
6:55 PM 59.9 °F 52.9 °F 78% 29.89 in 10.0 mi East 18.4 mph 21.9 mph N/A Rain Rain
7:15 PM 59.5 °F 53.2 °F 80% 29.89 in 10.0 mi ENE 9.2 mph - N/A   Light Drizzle
7:35 PM 59.0 °F 53.8 °F 83% 29.86 in 7.0 mi East 12.7 mph - N/A Rain Light Rain
7:55 PM 59.0 °F 54.7 °F 86% 29.85 in 10.0 mi ENE 12.7 mph - N/A Rain Light Rain
8:15 PM 59.0 °F 55.4 °F 88% 29.85 in 10.0 mi ENE 8.1 mph - N/A   Overcast
8:16 PM 59.0 °F 55.4 °F 88% 29.86 in 10.0 mi NE 8.1 mph - N/A   Overcast
8:35 PM 59.4 °F 55.8 °F 88% 29.84 in 7.0 mi East 6.9 mph - N/A Rain Rain
8:55 PM 59.5 °F 55.9 °F 88% 29.84 in 7.0 mi ENE 10.4 mph - N/A Rain Light Rain
8:56 PM 59.5 °F 55.9 °F 88% 29.84 in 7.0 mi ENE 9.2 mph - N/A Rain Light Rain
9:15 PM 59.5 °F 55.9 °F 88% 29.83 in 7.0 mi NE 8.1 mph - N/A Rain Light Rain
9:16 PM 59.4 °F 55.9 °F 88% 29.83 in 7.0 mi NE 9.2 mph - N/A Rain Light Rain
9:35 PM 59.2 °F 55.8 °F 88% 29.83 in 10.0 mi ENE 6.9 mph - N/A Rain Light Rain
9:55 PM 59.0 °F 55.8 °F 89% 29.82 in 7.0 mi NE 9.2 mph - N/A Rain Rain
9:56 PM 59.0 °F 55.8 °F 89% 29.82 in 7.0 mi ENE 10.4 mph - N/A Rain Rain
10:15 PM 58.6 °F 55.6 °F 90% 29.83 in 5.0 mi ENE 8.1 mph - N/A Rain Heavy Rain
10:16 PM 58.6 °F 55.6 °F 90% 29.83 in 5.0 mi ENE 10.4 mph - N/A Rain Heavy Rain
10:35 PM 58.5 °F 55.6 °F 90% 29.82 in 10.0 mi NE 8.1 mph - N/A Rain Light Rain
10:55 PM 58.1 °F 55.0 °F 90% 29.81 in 10.0 mi ENE 10.4 mph - N/A   Overcast
11:15 PM 57.7 °F 54.5 °F 89% 29.80 in 10.0 mi East 12.7 mph 17.3 mph N/A   Overcast
11:35 PM 57.6 °F 54.0 °F 88% 29.79 in 10.0 mi ENE 11.5 mph - N/A   Overcast
11:55 PM 57.2 °F 53.6 °F 88% 29.77 in 10.0 mi East 13.8 mph - N/A Rain Light Rain
11:56 PM 57.2 °F 53.6 °F 88% 29.77 in 10.0 mi East 13.8 mph - N/A Rain Light Rain